Orbital Elements at Epoch 2459200.5 (2020-Dec-17.0) TDB
Reference: JPL 12 (heliocentric ecliptic J2000)
Element | Value | Uncertainty (1-sigma) | Units |
e | .1000623720200223 | 4.6898e-08 | |
a | 2.681950150045378 | 2.1146e-08 | au |
q | 2.413587856392383 | 1.3341e-07 | au |
i | 2.197787408856831 | 4.9261e-06 | deg |
node | 281.8576097323605 | 0.00019512 | deg |
peri | 32.35778660136734 | 0.00019907 | deg |
M | 324.0377263209829 | 4.1713e-05 | deg |
tp | 2459360.757779066807 (2021-May-26.25777907) | 0.00018609 | TDB |
period | 1604.258979256716 4.39 | 1.8973e-05 5.195e-08 | d yr |
n | .2244026710492809 | 2.6539e-09 | deg/d |
Q | 2.950312443698374 | 2.3262e-08 | au |
|
| | Orbit Determination Parameters
Additional Information
|